CUSAT 2 & FALCON 9 R/B (39271 NORAD) Tracking and Keplerian Element Data

This shows tracking and keplerian element data for the satellite.

Feedback or suggestion? Click here.




ElementValue
Catalog39271
NameCUSAT 2 & FALCON 9 R/B
Epoch Orbit26701
Epoch Day319.96406564
Epoch Year2018
RAAN167.8515
Inclination80.9672
Eccentricity0.0609756
Argument of Perigee106.2453
Mean Anonmoly260.6681
Mean Motion14.43078637
Decay Rate4.331E-05
L11 39271U 13055G 18319.96406564 .00004331 00000-0 10574-3 0 9999
L22 39271 80.9672 167.8515 0609756 106.2453 260.6681 14.43078637267011

Live tracking and technical data element details for CUSAT 2 & FALCON 9 R/B (NORAD 39271). CUSAT 2 & FALCON 9 R/B can be tracked NOW for your location showing map with azimuth and elevation plus other details from your city location.

Track the satellite on the map from your city or location and see movement details for azimuth, elevation, latitude, longitude, range, height, and movement on the map or in text.







IsCatalogInMostPopularTable: catalog: 39271, numindb: 159
Update: records affected: 1



GetName: 39271 CUSAT 2 & FALCON 9 R/B

Hit Count: updated at: Fri, 16 Nov 2018 12:28:41 GMT